Location: Newark
(40.2997°S, 67.9000°W)
Time: 11:16:55
(UTC+00:00)

ISS - Visible Passes

Search period start: 12 December 2019 00:00
Search period end: 22 December 2019 00:00
Orbit: 411 x 421 km, 51.6° (Epoch: 13 December)

Date Brightness Start Highest point End Pass type
(mag) Time Alt. Az. Time Alt. Az. Time Alt. Az.
12 Dec -1.6 04:03:32 27° SSE 04:03:32 27° SSE 04:05:34 10° SE visible
12 Dec -0.6 05:38:01 10° SW 05:39:53 14° S 05:41:46 10° SSE visible
12 Dec -0.6 07:15:44 10° SSW 07:17:45 15° SSE 07:19:46 10° SE visible
13 Dec -1.7 03:15:35 25° SE 03:15:35 25° SE 03:17:12 10° SE visible
13 Dec -0.7 04:48:54 10° SW 04:51:09 16° SSW 04:53:23 10° SSE visible
13 Dec -0.4 06:27:17 10° SSW 06:29:00 13° S 06:30:42 10° SE visible
13 Dec -1.4 08:03:34 10° SW 08:06:37 29° SSE 08:09:38 10° E visible
14 Dec -2.9 02:26:23 41° SE 02:26:23 41° SE 02:28:45 10° SE visible
14 Dec -1.0 03:59:49 10° WSW 04:02:25 20° SSW 04:05:03 10° SSE visible
14 Dec -0.3 05:38:38 10° SSW 05:40:13 12° S 05:41:47 10° SSE visible
14 Dec -0.9 07:15:14 10° SSW 07:17:58 21° SSE 07:20:39 10° ESE visible
15 Dec -3.6 01:33:32 10° NNW 01:36:51 49° NE 01:40:11 10° ESE visible
15 Dec -1.4 03:10:48 10° W 03:13:45 26° SSW 03:16:43 10° SE visible
15 Dec -0.3 04:49:45 10° SSW 04:51:25 13° S 04:53:04 10° SSE visible
15 Dec -0.6 06:26:54 10° SSW 06:29:15 17° SSE 06:31:35 10° ESE visible
15 Dec -3.2 08:03:06 10° SW 08:06:31 65° SE 08:09:53 10° ENE visible
16 Dec -2.8 00:45:30 10° NNW 00:48:27 27° NE 00:51:25 10° ESE visible
16 Dec -2.1 02:21:53 10° W 02:25:07 37° SSW 02:28:21 10° SE visible
16 Dec -0.3 04:00:41 10° SW 04:02:37 14° S 04:04:32 10° SSE visible
16 Dec -0.3 05:38:30 10° SSW 05:40:28 14° S 05:42:27 10° SE visible
16 Dec -2.2 07:14:40 10° SW 07:17:57 40° SSE 07:21:11 10° ENE visible
17 Dec -3.1 01:33:07 10° WNW 01:36:31 59° SW 01:39:56 10° SE visible
17 Dec -0.5 03:11:32 10° WSW 03:13:50 16° SSW 03:16:07 10° SSE visible
17 Dec -0.2 04:49:58 10° SSW 04:51:40 13° S 04:53:22 10° SE visible
17 Dec -1.5 06:26:18 10° SW 06:29:18 27° SSE 06:32:18 10° E visible
17 Dec -3.4 08:02:53 10° WSW 08:06:10 43° NW 08:09:23 10° NNE visible
18 Dec -3.8 00:44:34 10° NW 00:47:59 81° NE 00:51:27 10° SE visible
18 Dec -0.9 02:22:24 10° WSW 02:25:04 20° SSW 02:27:45 10° SSE visible
18 Dec -0.2 04:01:15 10° SSW 04:02:50 13° S 04:04:25 10° SSE visible
18 Dec -1.0 05:37:56 10° SSW 05:40:36 20° SSE 05:43:16 10° ESE visible
18 Dec -3.9 07:14:15 10° SW 07:17:41 79° NW 07:21:04 10° NE visible
19 Dec -1.4 01:33:21 10° W 01:36:21 27° SSW 01:39:23 10° SE visible
19 Dec -0.3 03:12:18 10° SW 03:13:59 13° S 03:15:41 10° SSE visible
19 Dec -0.6 04:49:32 10° SSW 04:51:50 16° SSE 04:54:07 10° ESE visible
19 Dec -3.2 06:25:43 10° SW 06:29:09 60° SE 06:32:31 10° ENE visible
19 Dec -2.1 08:03:26 10° W 08:05:32 15° NW 08:07:37 10° NNW visible
20 Dec -2.1 00:44:26 10° WNW 00:47:41 39° SSW 00:50:58 10° SE visible
20 Dec -0.4 02:23:11 10° SW 02:25:09 14° S 02:27:08 10° SSE visible
20 Dec -0.4 04:01:05 10° SSW 04:03:01 14° S 04:04:57 10° SE visible
20 Dec -2.2 05:37:16 10° SW 05:40:31 37° SSE 05:41:19 32° ESE visible
21 Dec -0.6 01:33:59 10° WSW 01:36:20 17° SSW 01:38:42 10° SSE visible
21 Dec -0.4 03:12:30 10° SSW 03:14:10 13° S 03:15:49 10° SSE visible
21 Dec -1.6 04:48:51 10° SW 04:51:49 26° SSE 04:52:15 25° SE visible
